Weather History for Paris / Charles De Gaulle, France

Change the Weather History Date:

Thursday, January 10, 2013

  Actual Average Record
Temperature  
Mean Temperature 44 °F -  
Max Temperature 46 °F 43 °F 56 °F (2015)
Min Temperature 41 °F 34 °F 12 °F (2009)
Degree Days  
Heating Degree Days 22    
Moisture  
Dew Point 42 °F    
Average Humidity 95    
Maximum Humidity 100    
Minimum Humidity 93    
Precipitation  
Precipitation 0.00 in - - ()
Sea Level Pressure  
Sea Level Pressure 29.98 in    
Wind  
Wind Speed 4 mph ()    
Max Wind Speed 8 mph    
Max Gust Speed 20 mph    
Visibility 1.5 miles    
Events Fog , Rain    
Averages and records for this station are not official NWS values.
T = Trace of Precipitation, MM = Missing Value Source: Averaged Metar Reports

Daily Weather History Graph

Daily Weather History Graph

Search for Another Location

Airport:

Trip Planner

Search our weather history database for the weather conditions in past years. The results will help you decide how hot, cold, wet, or windy it might be!

Date:

Astronomy

Jan. 10, 2013 Rise Set
Actual Time 8:41 AM CET 5:13 PM CET
Civil Twilight 8:05 AM CET 5:50 PM CET
Nautical Twilight 7:25 AM CET 6:29 PM CET
Astronomical Twilight 6:47 AM CET 7:08 PM CET
Moon 7:06 AM CET (1/10) 4:04 PM CET (1/10)
Length of Visible Light 9h 45m
Length of Day
8h 32m
Waning Crescent, 3% of the Moon is Illuminated
Jan 10
Waning Crescent
Jan 11
New
Jan 19
First Quarter
Jan 27
Full
Feb 3
Last Quarter

Hourly Weather History & Observations

Time (CET) Temp. Windchill Dew Point Humidity Pressure Visibility Wind Dir Wind Speed Gust Speed Precip Events Conditions
12:00 AM 42.8 °F 39.3 °F 41.0 °F 93% 30.09 in 0.9 mi Variable 5.8 mph 19.6 mph N/A   Light Drizzle
12:30 AM 42.8 °F 40.1 °F 41.0 °F 93% 30.09 in 0.9 mi SW 4.6 mph - N/A   Mostly Cloudy
1:00 AM 42.8 °F 39.3 °F 41.0 °F 93% 30.06 in 0.9 mi SSW 5.8 mph - N/A Fog Patches of Fog
1:30 AM 41.0 °F 37.1 °F 41.0 °F 100% 30.06 in 0.6 mi SSW 5.8 mph - N/A Fog Patches of Fog
2:00 AM 41.0 °F 38.0 °F 41.0 °F 100% 30.06 in 0.5 mi SW 4.6 mph - N/A Fog Fog
2:04 AM 41.0 °F 38.0 °F 41.0 °F 100% 30.06 in 0.5 mi SSW 4.6 mph - N/A   Mostly Cloudy
2:30 AM 42.8 °F 40.1 °F 41.0 °F 93% 30.06 in 0.4 mi SW 4.6 mph - N/A Fog Fog
3:00 AM 42.8 °F 40.1 °F 41.0 °F 93% 30.04 in 0.3 mi SW 4.6 mph - N/A Fog Fog
3:30 AM 42.8 °F 38.6 °F 41.0 °F 93% 30.04 in 0.3 mi SSW 6.9 mph - N/A Fog Fog
4:00 AM 42.8 °F 39.3 °F 41.0 °F 93% 30.04 in 0.4 mi WSW 5.8 mph - N/A Fog Fog
4:30 AM 42.8 °F 39.3 °F 41.0 °F 93% 30.04 in - SW 5.8 mph - N/A Fog Fog
5:00 AM 42.8 °F 39.3 °F 41.0 °F 93% 30.04 in 0.2 mi SSW 5.8 mph - N/A Fog Fog
5:30 AM 42.8 °F 41.1 °F 41.0 °F 93% 30.01 in 0.1 mi South 3.5 mph - N/A Fog Fog
6:00 AM 42.8 °F - 41.0 °F 93% 30.01 in 0.2 mi SW 2.3 mph - N/A Fog Light Drizzle
6:30 AM 42.8 °F 39.3 °F 41.0 °F 93% 30.01 in 0.2 mi South 5.8 mph - N/A Fog Fog
7:00 AM 42.8 °F 41.1 °F 41.0 °F 93% 30.01 in 0.2 mi SSW 3.5 mph - N/A Fog Fog
7:30 AM 42.8 °F 41.1 °F 41.0 °F 93% 30.04 in 0.6 mi SW 3.5 mph - N/A Fog Fog
8:00 AM 42.8 °F 41.1 °F 41.0 °F 93% 30.04 in 0.7 mi SW 3.5 mph - N/A   Light Drizzle
8:30 AM 42.8 °F 40.1 °F 42.8 °F 100% 30.01 in 0.7 mi SSW 4.6 mph - N/A Fog Light Drizzle
9:00 AM 42.8 °F 40.1 °F 41.0 °F 93% 30.01 in 0.5 mi South 4.6 mph - N/A Fog Fog
9:30 AM 42.8 °F 39.3 °F 41.0 °F 93% 30.01 in 0.2 mi SW 5.8 mph - N/A Fog Fog
10:00 AM 42.8 °F 41.1 °F 42.8 °F 100% 30.01 in 0.4 mi South 3.5 mph - N/A Fog Fog
10:30 AM 42.8 °F 39.3 °F 42.8 °F 100% 30.01 in 0.4 mi South 5.8 mph - N/A Fog Fog
11:00 AM 42.8 °F 39.3 °F 42.8 °F 100% 30.01 in 0.5 mi SSW 5.8 mph - N/A Fog Fog
11:30 AM 44.6 °F 41.4 °F 42.8 °F 93% 29.98 in 1.2 mi SSW 5.8 mph - N/A Rain Light Rain
12:00 PM 44.6 °F 42.2 °F 42.8 °F 93% 29.98 in 1.2 mi Variable 4.6 mph - N/A   Overcast
12:30 PM 44.6 °F 42.2 °F 42.8 °F 93% 29.98 in 1.2 mi Variable 4.6 mph - N/A   Light Drizzle
1:00 PM 44.6 °F 42.2 °F 42.8 °F 93% 29.98 in 0.9 mi West 4.6 mph - N/A   Light Drizzle
1:30 PM 44.6 °F 42.2 °F 42.8 °F 93% 29.95 in 0.9 mi West 4.6 mph - N/A   Light Drizzle
2:00 PM 44.6 °F - 42.8 °F 93% 29.95 in 1.9 mi WNW 2.3 mph - N/A Rain Light Rain
2:30 PM 44.6 °F 41.4 °F 42.8 °F 93% 29.95 in 2.2 mi Variable 5.8 mph - N/A Rain Light Rain
3:00 PM 44.6 °F 43.1 °F 42.8 °F 93% 29.92 in 2.2 mi West 3.5 mph - N/A Rain Light Rain
3:30 PM 44.6 °F 43.1 °F 42.8 °F 93% 29.92 in 1.6 mi West 3.5 mph - N/A   Light Drizzle
4:00 PM 44.6 °F - 44.6 °F 100% 29.92 in 1.6 mi Calm Calm - N/A Rain Rain
4:30 PM 44.6 °F - 44.6 °F 100% 29.92 in 5.0 mi Calm Calm - N/A   Mostly Cloudy
5:00 PM 44.6 °F - 42.8 °F 93% 29.92 in 5.0 mi Variable 1.2 mph - N/A   Mostly Cloudy
5:30 PM 44.6 °F - 42.8 °F 93% 29.92 in 5.0 mi Calm Calm - N/A   Mostly Cloudy
6:00 PM 44.6 °F 43.1 °F 44.6 °F 100% 29.92 in 3.7 mi SSW 3.5 mph - N/A   Light Drizzle
6:30 PM 44.6 °F - 44.6 °F 100% 29.92 in 3.1 mi SSW 2.3 mph - N/A   Light Drizzle
7:00 PM 44.6 °F - 44.6 °F 100% 29.89 in 1.2 mi SSW 2.3 mph - N/A   Light Drizzle
7:30 PM 44.6 °F 43.1 °F 44.6 °F 100% 29.89 in 1.2 mi SSW 3.5 mph - N/A   Light Drizzle
8:00 PM 44.6 °F - 44.6 °F 100% 29.89 in 1.2 mi Variable 2.3 mph - N/A   Light Drizzle
8:30 PM 46.4 °F 44.3 °F 44.6 °F 93% 29.89 in 1.6 mi WSW 4.6 mph - N/A   Mostly Cloudy
9:00 PM 46.4 °F - 44.6 °F 93% 29.89 in 1.6 mi Variable 2.3 mph - N/A   Mostly Cloudy
9:30 PM 46.4 °F - 44.6 °F 93% 29.89 in 1.2 mi Variable 2.3 mph - N/A   Light Drizzle
10:00 PM 44.6 °F 43.1 °F 44.6 °F 100% 29.89 in 1.4 mi NNE 3.5 mph - N/A Rain Light Drizzle
10:30 PM 44.6 °F 40.2 °F 42.8 °F 93% 29.89 in 5.6 mi North 8.1 mph - N/A Rain Light Rain
11:00 PM 44.6 °F 43.1 °F 42.8 °F 93% 29.89 in 4.3 mi North 3.5 mph - N/A Rain Light Rain
11:30 PM 44.6 °F 41.4 °F 42.8 °F 93% 29.89 in 4.3 mi North 5.8 mph - N/A Rain Light Rain